Weather observations for the past three days for
Dunkirk, Chautauqua County / Dunkirk Airport
Imperial (Metric)
Date Time (edt) Wind (mph) Vis. (mi.) Weather Sky Cond. Temperature (ºF) Relative Humidity Wind Chill (°F) Heat Index (°F) Pressure Precipitation (in)
Air Dwpt 6 hour altimeter (in) sea level (mb) 1 hr 3 hr 6 hr
Max. Min.
24 11:53 SW 10 10.00 Fair CLR 84.9 64.9 51% 87 30.04 1016.7
24 10:53 SW 12 G 20 10.00 Fair CLR 84 64.9 53% 86 30.05 1016.9
24 09:53 SW 10 10.00 Partly Cloudy SCT060 82 66 58% 84 30.05 1017.1
24 08:53 S 10 10.00 A Few Clouds FEW055 78.1 66 67% 80 30.05 1016.9
24 07:53 S 10 10.00 Fair CLR 75.9 64.9 75.9 73 69% 78 30.04 1016.7
24 06:53 S 9 10.00 Fair CLR 73.9 64 71% 30.04 1016.8
24 05:53 S 8 10.00 Fair CLR 73 64 74% 30.03 1016.5
24 04:53 S 12 G 18 10.00 Fair CLR 73.9 63 69% 30.03 1016.5
24 03:53 S 9 10.00 Fair CLR 75 60.1 60% 77 30.02 1016.1
24 02:53 S 12 10.00 Mostly Cloudy BKN085 75 61 62% 77 30.03 1016.4
24 01:53 S 20 G 26 10.00 Mostly Cloudy BKN070 BKN090 75 64 79 71.1 69% 77 30.04 1016.8
24 00:53 W 9 10.00 Light Rain FEW050 SCT080 OVC100 75.9 63 64% 78 30.05 1017.1
23 23:53 S 5 10.00 Partly Cloudy SCT120 73.9 63 69% 30.06 1017.3
23 22:53 Calm 10.00 Mostly Cloudy FEW060 BKN095 73 64 74% 30.06 1017.6
23 21:53 Calm 10.00 Partly Cloudy SCT060 SCT075 73.9 64 71% 30.07 1017.7
23 20:53 Calm 10.00 Fair CLR 77 63 62% 79 30.04 1016.9
23 19:53 E 3 10.00 Fair CLR 79 62.1 84 78.1 56% 80 30.04 1016.8
23 18:53 N 3 10.00 Fair CLR 80.1 62.1 54% 81 30.05 1017.0
23 17:53 N 5 10.00 Fair CLR 82 61 49% 83 30.04 1016.7
23 16:53 N 7 10.00 Fair CLR 82 59 46% 82 30.05 1017.1
23 15:53 N 9 10.00 Fair CLR 82.9 59 44% 83 30.06 1017.5
23 14:53 W 5 10.00 Fair CLR 82 59 46% 82 30.06 1017.6
23 13:53 W 10 10.00 Fair CLR 82 64.9 82 73.9 56% 84 30.08 1018.0
23 12:53 NW 9 10.00 Fair CLR 81 62.1 53% 82 30.08 1018.0
23 11:53 W 8 10.00 A Few Clouds FEW090 81 62.1 53% 82 30.08 1018.2
23 10:53 Vrbl 5 10.00 Partly Cloudy FEW022 SCT120 80.1 64.9 60% 82 30.08 1018.0
23 09:53 SW 6 10.00 Mostly Cloudy BKN120 78.1 66.9 69% 80 30.06 1017.6
23 08:53 SW 7 10.00 Fair CLR 75.9 66 72% 77 30.06 1017.3
23 07:53 S 5 10.00 Fair CLR 73.9 64.9 73.9 70 74% 30.05 1017.0
23 06:53 Calm 10.00 Fair CLR 70 63 79% 30.03 1016.4
23 05:53 Calm 10.00 Overcast OVC100 71.1 63 76% 30.02 1016.0
23 04:53 SW 6 10.00 Partly Cloudy SCT120 72 61 68% 30 1015.5
23 03:53 S 6 10.00 Overcast OVC110 71.1 62.1 73% 30 1015.4
23 02:53 SW 7 10.00 Overcast SCT035 OVC100 71.1 62.1 73% 30.01 1015.6
23 01:53 Calm 10.00 Overcast BKN032 OVC100 72 63 77 71.1 73% 30 1015.5
23 00:53 SE 9 10.00 Overcast BKN030 OVC120 72 63 73% 30.01 1015.7
22 23:53 Calm 10.00 Overcast FEW050 OVC120 71.1 64 79% 30 1015.4
22 22:53 S 5 10.00 Overcast FEW028 SCT055 OVC120 72 64 76% 29.99 1015.2
22 21:53 SW 3 10.00 Mostly Cloudy SCT100 BKN120 72 66 82% 29.99 1015.2
22 20:53 Calm 10.00 Light Rain BKN120 73 66.9 81% 29.98 1014.8
22 19:53 SW 5 10.00 Light Rain FEW100 BKN120 77 64 82.9 75.9 64% 79 29.97 1014.5
22 18:53 W 3 10.00 Fair CLR 79 63 58% 81 29.97 1014.6
22 17:53 W 6 10.00 Fair CLR 80.1 62.1 54% 81 29.97 1014.4
22 16:53 NW 5 10.00 Fair CLR 80.1 61 52% 81 29.98 1014.8
22 15:53 Calm 10.00 Fair CLR 82 61 49% 83 29.99 1015.0
22 14:53 N 5 10.00 Fair CLR 82 61 49% 83 30 1015.3
22 13:53 N 8 10.00 Fair CLR 81 64 82 71.1 57% 83 30.01 1015.7
22 12:53 N 7 10.00 Fair CLR 81 63 54% 82 30.02 1016.1
22 11:53 N 9 10.00 Fair CLR 79 62.1 56% 80 30.04 1016.8
22 10:53 NW 7 10.00 Fair CLR 81 60.1 49% 82 30.04 1016.8
22 09:53 N 3 10.00 Fair CLR 81 61 51% 82 30.04 1016.7
22 08:53 Calm 10.00 Fair CLR 75.9 64 67% 78 30.04 1016.9
22 07:53 Calm 10.00 Fair CLR 71.1 61 71.1 62.1 71% 30.04 1016.9
22 06:53 SE 3 10.00 Fair CLR 64.9 57.9 78% 30.05 1017.1
22 05:53 S 5 10.00 Fair CLR 62.1 55.9 80% 30.04 1016.9
22 04:53 Calm 10.00 Fair CLR 64 57 78% 30.05 1017.3
22 03:53 S 3 10.00 Fair CLR 64 57 78% 30.06 1017.6
22 02:53 S 3 10.00 Fair CLR 64.9 57 76% 30.07 1017.9
22 01:53 S 5 10.00 Fair CLR 66 57.9 78.1 64 75% 30.08 1018.3
22 00:53 S 3 10.00 Fair CLR 64.9 59 81% 30.09 1018.6
21 23:53 Calm 10.00 Fair CLR 66.9 60.1 79% 30.09 1018.6
21 22:53 S 3 10.00 Fair CLR 66.9 61 81% 30.08 1018.3
21 21:53 Calm 10.00 Fair CLR 70 63 79% 30.09 1018.4
21 20:53 S 3 10.00 Fair CLR 73 64 74% 30.07 1017.9
21 19:53 SW 5 10.00 Fair CLR 77 62.1 82 77 60% 79 30.07 1017.9
21 18:53 W 6 10.00 Fair CLR 80.1 61 52% 81 30.07 1017.9
21 17:53 Vrbl 5 10.00 Fair CLR 81 60.1 49% 82 30.07 1017.7
21 16:53 W 8 10.00 Fair CLR 81 61 51% 82 30.08 1018.3
21 15:53 Vrbl 7 10.00 Fair CLR 82 59 46% 82 30.1 1018.7
21 14:53 NW 7 10.00 Fair CLR 82 62.1 51% 83 30.1 1018.7
21 13:53 W 9 10.00 Fair CLR 81 61 82 71.1 51% 82 30.1 1018.8
21 12:53 NW 10 10.00 Fair CLR 80.1 62.1 54% 81 30.1 1018.9
Date Time (edt) Wind (mph) Vis. (mi.) Weather Sky Cond. Air Dwpt Max. Min. Relative Humidity Wind Chill (°F) Heat Index (°F) altimeter (in) sea level (mb) 1 hr 3 hr 6 hr
6 hour
Temperature (ºF) Pressure Precipitation (in)